User: anonymous   Login
Location: Holcomb Observatory
(44.4922°N, 73.1654°W)
Time: 20:12:32
(UTC-04:00)
Language:

SL-16 R/B - Orbit

View from above orbital plane
View from above orbital plane
View from above satellite
View from above satellite

Ground track
Ground track

The orbit data is extracted from the following two-line orbital elements,

1 27006U 01056F   16241.88661819 -.00000010  00000-0  37139-4 0  9997
2 27006  99.2699  26.7417 0014488 355.5784 168.9073 13.70972037736447
Epoch (UTC): 28 August 2016 21:16:43
Eccentricity: 0.0014488
inclination: 99.2699°
perigee height: 985 km
apogee height: 1007 km
right ascension of ascending node: 26.7417°
argument of perigee: 355.5784°
revolutions per day: 13.70972037
mean anomaly at epoch: 168.9073°
orbit number at epoch: 73644

The dashed part of the orbit path shows where the satellite is in the earth's shadow,  

DLR